Location: Passo di Treia
(43.2833°N, 13.3333°E)
Time: 14:06:18
(UTC+00:00)

BREEZE-M R/B - Pass Details

Date: 09 December 2019
Orbit: 309 x 4546 km, 49.7° (Epoch: 27 January)

Event Time Altitude Azimuth Distance (km) Brightness Sun altitude
Rises 16:52:06 0° 280° (W) 4,157 8.4 -14.2°
Reaches altitude 10° 16:56:02 10° 289° (WNW) 2,549 7.0 -14.9°
Maximum altitude 17:00:53 33° 353° (N) 944 3.9 -15.8°
Enters shadow 17:02:04 26° 32° (NNE) 997 3.7 -16.0°
